EW6800 Weather Reports


Display with metric or nautical units.
time (UTC)temp
F
wind
direction
speed
MPH
gust
MPH
rain 1hr
in
rain 24hr
in
rain mn
in
humidity
%
barometer
mb
20210803124642 69 0 0.0 0.0 0.00 0.00 0.00 10 1017.7
20210803124048 69 0 0.0 0.0 0.00 0.00 0.00 9 1017.8
20210803123607 69 0 0.0 0.0 0.00 0.00 0.00 12 1017.6
20210803123138 69 0 0.0 0.0 0.00 0.00 0.00 12 1017.7
20210803122548 69 0 0.0 0.0 0.00 0.00 0.00 12 1017.7
20210803122042 69 0 0.0 0.0 0.00 0.00 0.00 12 1017.7
20210803121728 69 0 0.0 0.0 0.00 0.00 0.00 13 1017.8
20210803121049 69 0 0.0 0.0 0.00 0.00 0.00 15 1017.7
20210803120611 69 0 0.0 0.0 0.00 0.00 0.00 15 1017.7
20210803120138 69 0 0.0 0.0 0.00 0.00 0.00 17 1017.7
20210803115551 69 0 0.0 0.0 0.00 0.00 0.00 19 1017.7
20210803115044 69 0 0.0 0.0 0.00 0.00 0.00 19 1017.7
20210803114731 69 0 0.0 0.0 0.00 0.00 0.00 20 1017.7
20210803114044 68 0 0.0 0.0 0.00 0.00 0.00 20 1017.7
20210803113543 68 0 0.0 0.0 0.00 0.00 0.00 21 1017.7
20210803113209 68 0 0.0 0.0 0.00 0.00 0.00 23 1017.6
20210803112543 68 0 0.0 0.0 0.00 0.00 0.00 20 1017.6
20210803112114 68 0 0.0 0.0 0.00 0.00 0.00 21 1017.7
20210803111725 68 0 0.0 0.0 0.00 0.00 0.00 24 1017.6
20210803111055 69 0 0.0 0.0 0.00 0.00 0.00 23 1017.6
20210803110549 69 0 0.0 0.0 0.00 0.00 0.00 21 1017.5
20210803110232 68 0 0.0 0.0 0.00 0.00 0.00 20 1017.6
20210803105543 68 0 0.0 0.0 0.00 0.00 0.00 23 1017.6
20210803105041 68 0 0.0 0.0 0.00 0.00 0.00 22 1017.6
20210803104616 68 0 0.0 0.0 0.00 0.00 0.00 22 1017.7
20210803104044 68 0 0.0 0.0 0.00 0.00 0.00 24 1017.7
20210803103554 68 0 0.0 0.0 0.00 0.00 0.00 25 1017.7
20210803103130 68 0 0.0 0.0 0.00 0.00 0.00 24 1017.7
20210803102542 68 0 0.0 0.0 0.00 0.00 0.00 23 1017.6
20210803102044 68 0 0.0 0.0 0.00 0.00 0.00 28 1017.7
20210803101813 68 0 0.0 0.0 0.00 0.00 0.00 31 1017.6
20210803101045 68 0 0.0 0.0 0.00 0.00 0.00 32 1017.6
20210803100613 68 0 0.0 0.0 0.00 0.00 0.00 29 1017.7
20210803100231 68 0 0.0 0.0 0.00 0.00 0.00 38 1017.7
20210803095542 68 0 0.0 0.0 0.00 0.00 0.00 28 1017.8
20210803095113 68 0 0.0 0.0 0.00 0.00 0.00 26 1017.8
20210803094624 68 0 0.0 0.0 0.00 0.00 0.00 35 1017.9
20210803094108 68 0 0.0 0.0 0.00 0.00 0.00 33 1017.8
20210803093546 68 0 0.0 0.0 0.00 0.00 0.00 44 1017.8
20210803093252 68 0 0.0 0.0 0.00 0.00 0.00 39 1017.9
20210803092543 68 0 0.0 0.0 0.00 0.00 0.00 44 1017.9
20210803092042 68 0 0.0 0.0 0.00 0.00 0.00 40 1017.9
20210803091658 68 0 0.0 0.0 0.00 0.00 0.00 41 1017.9
20210803091048 67 0 0.0 0.0 0.00 0.00 0.00 45 1018.0
20210803090544 67 0 0.0 0.0 0.00 0.00 0.00 22 1018.0
20210803090134 67 0 0.0 0.0 0.00 0.00 0.00 24 1018.1
20210803085540 67 0 0.0 0.0 0.00 0.00 0.00 24 1018.1
20210803085045 67 0 0.0 0.0 0.00 0.00 0.00 34 1018.1
20210803084641 66 0 0.0 0.0 0.00 0.00 0.00 37 1018.1
20210803084101 66 0 0.0 0.0 0.00 0.00 0.00 33 1018.1
20210803083544 66 0 0.0 0.0 0.00 0.00 0.00 30 1018.1
20210803083124 65 0 0.0 0.0 0.00 0.00 0.00 32 1018.1
20210803082549 65 0 0.0 0.0 0.00 0.00 0.00 34 1018.1
20210803082145 65 0 0.0 0.0 0.00 0.00 0.00 34 1018.1
20210803081640 65 0 0.0 0.0 0.00 0.00 0.00 44 1018.2
20210803081042 65 0 0.0 0.0 0.00 0.00 0.00 47 1018.2
20210803080549 65 0 0.0 0.0 0.00 0.00 0.00 47 1018.3
20210803080242 65 0 0.0 0.0 0.00 0.00 0.00 50 1018.2
20210803075546 65 0 0.0 0.0 0.00 0.00 0.00 52 1018.4
20210803075110 65 0 0.0 0.0 0.00 0.00 0.00 52 1018.4
20210803074654 65 0 0.0 0.0 0.00 0.00 0.00 55 1018.4
20210803074051 65 0 0.0 0.0 0.00 0.00 0.00 56 1018.5
20210803073542 65 0 0.0 0.0 0.00 0.00 0.00 54 1018.5
20210803073140 65 0 0.0 0.0 0.00 0.00 0.00 50 1018.4
20210803072550 65 0 0.0 0.0 0.00 0.00 0.00 52 1018.5
20210803072056 65 0 0.0 0.0 0.00 0.00 0.00 48 1018.5
20210803071731 65 0 0.0 0.0 0.00 0.00 0.00 52 1018.5
20210803071042 65 0 0.0 0.0 0.00 0.00 0.00 55 1018.5
20210803070607 66 0 0.0 0.0 0.00 0.00 0.00 56 1018.5
20210803070203 66 0 0.0 0.0 0.00 0.00 0.00 58 1018.5
20210803065544 66 0 0.0 0.0 0.00 0.00 0.00 57 1018.5
20210803065042 67 0 0.0 0.0 0.00 0.00 0.00 56 1018.5
20210803064639 67 0 0.0 0.0 0.00 0.00 0.00 59 1018.4
20210803064041 67 0 0.0 0.0 0.00 0.00 0.00 56 1018.5
20210803063542 67 0 0.0 0.0 0.00 0.00 0.00 56 1018.4
20210803063126 67 0 0.0 0.0 0.00 0.00 0.00 57 1018.5
20210803062540 67 0 0.0 0.0 0.00 0.00 0.00 58 1018.5
20210803062110 67 0 0.0 0.0 0.00 0.00 0.00 58 1018.6
20210803061618 67 0 0.0 0.0 0.00 0.00 0.00 57 1018.5
20210803061042 67 0 0.0 0.0 0.00 0.00 0.00 56 1018.4
20210803060550 67 0 0.0 0.0 0.00 0.00 0.00 54 1018.5
20210803060102 68 0 0.0 0.0 0.00 0.00 0.00 56 1018.4
20210803055619 68 0 0.0 0.0 0.00 0.00 0.00 55 1018.5
20210803055104 68 0 0.0 0.0 0.00 0.00 0.00 55 1018.6
20210803054714 68 0 0.0 0.0 0.00 0.00 0.00 54 1018.7
20210803054043 68 0 0.0 0.0 0.00 0.00 0.00 53 1018.6
20210803053543 68 0 0.0 0.0 0.00 0.00 0.00 53 1018.7
20210803053113 68 0 0.0 0.0 0.00 0.00 0.00 52 1018.7
20210803052621 68 0 0.0 0.0 0.00 0.00 0.00 54 1018.7
20210803052056 69 0 0.0 0.0 0.00 0.00 0.00 57 1018.8
20210803051621 69 0 0.0 0.0 0.00 0.00 0.00 57 1018.7
20210803051043 69 0 0.0 0.0 0.00 0.00 0.00 59 1018.7
20210803050549 69 0 0.0 0.0 0.00 0.00 0.00 57 1018.8
20210803050118 68 0 0.0 0.0 0.00 0.00 0.00 59 1018.7
20210803045544 68 0 0.0 0.0 0.00 0.00 0.00 58 1018.7
20210803045049 68 0 0.0 0.0 0.00 0.00 0.00 59 1018.6
20210803044703 68 0 0.0 0.0 0.00 0.00 0.00 60 1018.7
20210803044044 68 0 0.0 0.0 0.00 0.00 0.00 60 1018.7
20210803043605 68 0 0.0 0.0 0.00 0.00 0.00 61 1018.6
20210803043252 68 0 0.0 0.0 0.00 0.00 0.00 61 1018.7
20210803042547 68 0 0.0 0.0 0.00 0.00 0.00 61 1018.7
20210803042042 68 0 0.0 0.0 0.00 0.00 0.00 61 1018.6
20210803041649 68 0 0.0 0.0 0.00 0.00 0.00 61 1018.7
20210803041043 68 0 0.0 0.0 0.00 0.00 0.00 59 1018.7
20210803040551 68 0 0.0 0.0 0.00 0.00 0.00 59 1018.7
20210803040136 67 0 0.0 0.0 0.00 0.00 0.00 59 1018.6
20210803035544 67 0 0.0 0.0 0.00 0.00 0.00 60 1018.6
20210803035103 67 0 0.0 0.0 0.00 0.00 0.00 60 1018.7
20210803034659 67 0 0.0 0.0 0.00 0.00 0.00 60 1018.7
20210803034046 67 0 0.0 0.0 0.00 0.00 0.00 61 1018.7
20210803033543 67 0 0.0 0.0 0.00 0.00 0.00 61 1018.6
20210803033059 68 0 0.0 0.0 0.00 0.00 0.00 60 1018.7
20210803032544 68 0 0.0 0.0 0.00 0.00 0.00 60 1018.5
20210803032043 68 0 0.0 0.0 0.00 0.00 0.00 59 1018.5
20210803031721 68 0 0.0 0.0 0.00 0.00 0.00 60 1018.7
20210803031051 67 0 0.0 0.0 0.00 0.00 0.00 59 1018.6
20210803030543 67 0 0.0 0.0 0.00 0.00 0.00 60 1018.7
20210803030144 67 0 0.0 0.0 0.00 0.00 0.00 61 1018.5
20210803025545 67 0 0.0 0.0 0.00 0.00 0.00 61 1018.6
20210803025041 67 0 0.0 0.0 0.00 0.00 0.00 61 1018.5
20210803024644 68 0 0.0 0.0 0.00 0.00 0.00 60 1018.6
20210803024043 68 0 0.0 0.0 0.00 0.00 0.00 59 1018.5
20210803023542 69 0 0.0 3.0 0.00 0.00 0.00 58 1018.5
20210803023244 69 0 0.0 3.0 0.00 0.00 0.00 57 1018.5
20210803022542 70 333 0.0 3.0 0.00 0.00 0.00 56 1018.5
20210803022041 70 0 0.0 2.0 0.00 0.00 0.00 55 1018.5
20210803021706 71 0 0.0 0.0 0.00 0.00 0.00 55 1018.6
20210803021040 71 0 0.0 0.0 0.00 0.00 0.00 54 1018.5
20210803020620 72 0 0.0 0.0 0.00 0.00 0.00 53 1018.5
20210803020149 73 0 0.0 0.0 0.00 0.00 0.00 52 1018.5
20210803015546 73 0 0.0 2.0 0.00 0.00 0.00 52 1018.6
20210803015050 73 0 0.0 4.0 0.00 0.00 0.00 52 1018.5
20210803014558 74 0 0.0 4.0 0.00 0.00 0.00 52 1018.6
20210803014041 74 0 0.0 0.0 0.00 0.00 0.00 51 1018.7
20210803013542 74 0 0.0 3.0 0.00 0.00 0.00 51 1018.6
20210803013146 74 0 0.0 5.0 0.00 0.00 0.00 51 1018.6
20210803012543 75 0 0.0 5.0 0.00 0.00 0.00 51 1018.6
20210803012056 75 0 0.0 3.0 0.00 0.00 0.00 50 1018.6
20210803011657 75 0 0.0 0.0 0.00 0.00 0.00 50 1018.6
20210803011043 75 0 0.0 0.0 0.00 0.00 0.00 50 1018.7
20210803010553 76 0 0.0 3.0 0.00 0.00 0.00 49 1018.8
20210803010209 76 0 0.0 3.0 0.00 0.00 0.00 49 1018.9
20210803005602 76 0 0.0 2.0 0.00 0.00 0.00 49 1018.8
20210803005044 76 0 0.0 2.0 0.00 0.00 0.00 49 1018.8
20210803004559 76 0 0.0 0.0 0.00 0.00 0.00 49 1018.9
20210803004043 76 0 0.0 0.0 0.00 0.00 0.00 49 1018.8
20210803003547 76 0 0.0 0.0 0.00 0.00 0.00 49 1019.0
20210803003130 76 0 0.0 0.0 0.00 0.00 0.00 49 1019.1
20210803002549 77 0 0.0 0.0 0.00 0.00 0.00 49 1019.2
20210803002050 77 0 0.0 0.0 0.00 0.00 0.00 48 1019.1
20210803001557 77 0 0.0 0.0 0.00 0.00 0.00 48 1019.1
20210803001043 77 0 0.0 0.0 0.00 0.00 0.00 48 1019.2
20210803000551 77 0 0.0 0.0 0.00 0.00 0.00 47 1019.1
20210803000103 78 0 0.0 3.0 0.00 0.00 0.00 47 1019.2
20210802235553 78 0 0.0 3.0 0.00 0.00 0.00 46 1019.2
20210802235043 78 0 0.0 3.0 0.00 0.00 0.00 46 1019.3
20210802234648 79 0 0.0 2.0 0.00 0.00 0.00 45 1019.4
20210802234105 79 0 0.0 0.0 0.00 0.00 0.00 46 1019.4
20210802233543 79 0 0.0 2.0 0.00 0.00 0.00 46 1019.3
20210802233145 79 0 0.0 2.0 0.00 0.00 0.00 45 1019.4
20210802232551 79 0 0.0 1.0 0.00 0.00 0.00 45 1019.4
20210802232043 79 0 0.0 1.0 0.00 0.00 0.00 45 1019.4
20210802231824 79 0 0.0 0.0 0.00 0.00 0.00 45 1019.3
20210802231043 79 0 0.0 5.0 0.00 0.00 0.00 45 1019.3
20210802230613 79 0 0.0 6.0 0.00 0.00 0.00 46 1019.5
20210802230139 79 334 0.0 6.0 0.00 0.00 0.00 45 1019.5
20210802225542 79 0 0.0 4.0 0.00 0.00 0.00 46 1019.5
20210802225043 78 0 0.0 4.0 0.00 0.00 0.00 46 1019.5
20210802224626 78 0 0.0 4.0 0.00 0.00 0.00 47 1019.7
20210802224043 78 0 0.0 4.0 0.00 0.00 0.00 46 1019.6
20210802223606 79 0 0.0 3.0 0.00 0.00 0.00 45 1019.7
20210802223125 79 0 0.0 3.0 0.00 0.00 0.00 45 1019.7
20210802222550 80 0 0.0 3.0 0.00 0.00 0.00 44 1019.9
20210802222045 80 0 0.0 2.0 0.00 0.00 0.00 45 1019.8
20210802221623 79 0 0.0 2.0 0.00 0.00 0.00 45 1019.8
20210802221143 79 0 0.0 1.0 0.00 0.00 0.00 45 1019.8
20210802220544 79 0 0.0 2.0 0.00 0.00 0.00 45 1019.8
20210802220147 78 0 0.0 2.0 0.00 0.00 0.00 45 1019.8
20210802215545 78 333 0.0 1.0 0.00 0.00 0.00 45 1019.9
20210802215042 79 0 0.0 3.0 0.00 0.00 0.00 45 1020.0
20210802214729 79 0 0.0 3.0 0.00 0.00 0.00 45 1019.9
20210802214042 79 0 0.0 0.0 0.00 0.00 0.00 44 1019.9
20210802213543 79 0 0.0 2.0 0.00 0.00 0.00 45 1019.9
20210802213133 78 0 0.0 2.0 0.00 0.00 0.00 45 1020.0
20210802212543 79 0 0.0 5.0 0.00 0.00 0.00 44 1020.0
20210802212043 79 0 0.0 5.0 0.00 0.00 0.00 44 1019.9
20210802211746 80 338 0.0 3.0 0.00 0.00 0.00 42 1020.2
20210802211043 81 0 0.0 3.0 0.00 0.00 0.00 41 1020.1
20210802210548 82 0 0.0 4.0 0.00 0.00 0.00 39 1020.2
20210802210205 83 0 0.0 4.0 0.00 0.00 0.00 38 1020.2
20210802205546 84 0 0.0 1.0 0.00 0.00 0.00 37 1020.3
20210802205056 84 0 0.0 1.0 0.00 0.00 0.00 36 1020.2
20210802204641 85 0 0.0 1.0 0.00 0.00 0.00 34 1020.2
20210802204110 85 0 0.0 1.0 0.00 0.00 0.00 33 1020.3
20210802203612 85 0 0.0 1.0 0.00 0.00 0.00 29 1020.3
20210802203146 84 0 0.0 1.0 0.00 0.00 0.00 33 1020.3
20210802202552 84 0 0.0 0.0 0.00 0.00 0.00 32 1020.3
20210802202043 84 0 0.0 1.0 0.00 0.00 0.00 32 1020.3
20210802201746 84 0 0.0 1.0 0.00 0.00 0.00 31 1020.3
20210802201114 83 0 0.0 2.0 0.00 0.00 0.00 30 1020.4
20210802200544 82 59 0.0 2.0 0.00 0.00 0.00 29 1020.4
20210802200225 83 0 0.0 0.0 0.00 0.00 0.00 28 1020.4
20210802195547 83 0 0.0 0.0 0.00 0.00 0.00 35 1020.5
20210802195101 83 0 0.0 0.0 0.00 0.00 0.00 34 1020.4
20210802194726 81 0 0.0 3.0 0.00 0.00 0.00 33 1020.4
20210802194057 81 0 0.0 3.0 0.00 0.00 0.00 35 1020.4
20210802193543 80 0 0.0 2.0 0.00 0.00 0.00 37 1020.4
20210802193219 79 0 0.0 1.0 0.00 0.00 0.00 32 1020.4
20210802192543 78 0 0.0 3.0 0.00 0.00 0.00 38 1020.5
20210802192042 78 0 0.0 3.0 0.00 0.00 0.00 34 1020.6
20210802191651 78 0 0.0 4.0 0.00 0.00 0.00 39 1020.6
20210802191050 77 0 0.0 4.0 0.00 0.00 0.00 36 1020.5
20210802190542 77 0 0.0 2.0 0.00 0.00 0.00 37 1020.5
20210802190131 76 0 0.0 2.0 0.00 0.00 0.00 40 1020.6
20210802185547 75 0 0.0 2.0 0.00 0.00 0.00 45 1020.7
20210802185042 75 0 0.0 3.0 0.00 0.00 0.00 42 1020.7
20210802184621 74 0 0.0 3.0 0.00 0.00 0.00 46 1020.7
20210802184118 74 0 0.0 1.0 0.00 0.00 0.00 43 1020.7
20210802183543 73 0 0.0 1.0 0.00 0.00 0.00 46 1020.7
20210802183213 72 0 0.0 1.0 0.00 0.00 0.00 47 1020.7
20210802182550 72 0 0.0 0.0 0.00 0.00 0.00 51 1020.8
20210802182106 71 0 0.0 0.0 0.00 0.00 0.00 50 1020.8
20210802181701 70 0 0.0 0.0 0.00 0.00 0.00 54 1020.8
20210802181126 69 0 0.0 0.0 0.00 0.00 0.00 55 1020.7
20210802180610 68 0 0.0 0.0 0.00 0.00 0.00 57 1020.8
20210802180200 68 0 0.0 0.0 0.00 0.00 0.00 58 1020.8
20210802175543 67 0 0.0 0.0 0.00 0.00 0.00 60 1020.8
20210802175044 66 0 0.0 0.0 0.00 0.00 0.00 61 1020.8
20210802174641 65 0 0.0 0.0 0.00 0.00 0.00 62 1020.7
20210802174043 65 0 0.0 0.0 0.00 0.00 0.00 61 1020.7
20210802173634 64 0 0.0 0.0 0.00 0.00 0.00 63 1020.7
20210802173256 64 0 0.0 0.0 0.00 0.00 0.00 63 1020.6
20210802172611 63 0 0.0 0.0 0.00 0.00 0.00 66 1020.6
20210802172050 63 0 0.0 0.0 0.00 0.00 0.00 63 1020.5
20210802171655 62 0 0.0 0.0 0.00 0.00 0.00 68 1020.5
20210802171106 61 0 0.0 0.0 0.00 0.00 0.00 68 1020.5
20210802170541 61 0 0.0 0.0 0.00 0.00 0.00 69 1020.5
20210802170203 60 0 0.0 0.0 0.00 0.00 0.00 70 1020.4
20210802165543 60 0 0.0 0.0 0.00 0.00 0.00 70 1020.4
20210802165045 60 0 0.0 0.0 0.00 0.00 0.00 71 1020.5
20210802164741 60 0 0.0 0.0 0.00 0.00 0.00 72 1020.4
20210802164042 59 0 0.0 0.0 0.00 0.00 0.00 72 1020.4
20210802163612 59 0 0.0 0.0 0.00 0.00 0.00 73 1020.4
20210802163154 59 0 0.0 0.0 0.00 0.00 0.00 73 1020.4
20210802162611 58 0 0.0 0.0 0.00 0.00 0.00 73 1020.5
20210802162041 58 0 0.0 0.0 0.00 0.00 0.00 73 1020.5
20210802161703 58 0 0.0 0.0 0.00 0.00 0.00 73 1020.6
20210802161042 57 0 0.0 0.0 0.00 0.00 0.00 75 1020.5
20210802160542 57 0 0.0 0.0 0.00 0.00 0.00 75 1020.5
20210802160114 57 0 0.0 1.0 0.00 0.00 0.00 75 1020.4
20210802155546 56 0 0.0 1.0 0.00 0.00 0.00 76 1020.4
20210802155041 56 0 0.0 0.0 0.00 0.00 0.00 77 1020.4
20210802154720 56 0 0.0 0.0 0.00 0.00 0.00 77 1020.2
20210802154043 56 0 0.0 0.0 0.00 0.00 0.00 77 1020.3
20210802153542 56 0 0.0 0.0 0.00 0.00 0.00 78 1020.3
20210802153125 56 0 0.0 0.0 0.00 0.00 0.00 77 1020.3
20210802152616 56 0 0.0 0.0 0.00 0.00 0.00 75 1020.3
20210802152046 56 0 0.0 0.0 0.00 0.00 0.00 74 1020.2
20210802151614 56 0 0.0 0.0 0.00 0.00 0.00 74 1020.2
20210802151043 57 0 0.0 0.0 0.00 0.00 0.00 73 1020.3
20210802150550 57 0 0.0 0.0 0.00 0.00 0.00 71 1020.1
20210802150150 58 0 0.0 1.0 0.00 0.00 0.00 71 1020.2
20210802145543 59 0 0.0 1.0 0.00 0.00 0.00 69 1020.1
20210802145050 60 0 0.0 1.0 0.00 0.00 0.00 60 1020.2
20210802144625 61 0 0.0 0.0 0.00 0.00 0.00 57 1020.0
20210802144044 61 0 0.0 0.0 0.00 0.00 0.00 52 1020.0
20210802143544 61 0 0.0 0.0 0.00 0.00 0.00 47 1020.0
20210802143214 60 0 0.0 0.0 0.00 0.00 0.00 42 1019.9
20210802142552 60 0 0.0 0.0 0.00 0.00 0.00 39 1019.8
20210802142042 60 0 0.0 0.0 0.00 0.00 0.00 38 1019.9
20210802141642 60 0 0.0 0.0 0.00 0.00 0.00 46 1019.9
20210802141057 59 0 0.0 0.0 0.00 0.00 0.00 39 1020.0
20210802140552 59 0 0.0 0.0 0.00 0.00 0.00 45 1019.9
20210802140115 59 0 0.0 0.0 0.00 0.00 0.00 50 1019.8
20210802135554 58 0 0.0 0.0 0.00 0.00 0.00 58 1019.7
20210802135042 58 0 0.0 0.0 0.00 0.00 0.00 61 1019.7
20210802134640 58 0 0.0 0.0 0.00 0.00 0.00 63 1019.8
20210802134040 58 0 0.0 0.0 0.00 0.00 0.00 66 1019.8
20210802133550 58 0 0.0 0.0 0.00 0.00 0.00 70 1019.7
20210802133142 58 0 0.0 3.0 0.00 0.00 0.00 69 1019.7
20210802132542 58 0 0.0 3.0 0.00 0.00 0.00 67 1019.7
20210802132041 58 0 0.0 0.0 0.00 0.00 0.00 65 1019.6
20210802131817 58 0 0.0 0.0 0.00 0.00 0.00 56 1019.6
20210802131043 58 0 0.0 0.0 0.00 0.00 0.00 55 1019.6
20210802130542 58 0 0.0 8.0 0.00 0.00 0.00 53 1019.5
20210802130058 58 0 0.0 8.0 0.00 0.00 0.00 53 1019.5
20210802125542 58 0 0.0 6.0 0.00 0.00 0.00 53 1019.4
20210802125040 58 0 0.0 2.0 0.00 0.00 0.00 55 1019.4